24 Mar
2009
24 Mar
'09
8:05 a.m.
ISS 1 25544U 98067A 09082.57215278 .00177566 00000-0 13224-2 0 5213 2 25544 051.6414 025.6276 0009450 148.8471 198.8268 15.71651309592479
5797
Age (days ago)
5797
Last active (days ago)
0 comments
1 participants
participants (1)
-
Dave Larsen PhD